Fremont, NE

4:17 AM CDT on August 31, 2016 (GMT -0500)
Fremont Municipal

Weather History for KFET - May, 2013

Change the Weather History Date:

Thursday, May 9, 2013

  Actual Average Record
Temperature  
Mean Temperature 58 °F -  
Max Temperature 65 °F 73 °F 96 °F (2011)
Min Temperature 52 °F 48 °F 33 °F (1966)
Degree Days  
Heating Degree Days 7    
Growing Degree Days 8 (Base 50)    
Moisture  
Dew Point 54 °F    
Average Humidity 86    
Maximum Humidity 94    
Minimum Humidity 72    
Precipitation  
Precipitation 0.06 in - - ()
Sea Level Pressure  
Sea Level Pressure 29.95 in    
Wind  
Wind Speed 5 mph (NNW)    
Max Wind Speed 14 mph    
Max Gust Speed 22 mph    
Visibility 6 miles    
Events Fog , Thunderstorm    
Averages and records for this station are not official NWS values.
T = Trace of Precipitation, MM = Missing Value Source: NWS Daily Summary

Daily Weather History Graph

Daily Weather History Graph

Search for Another Location

Airport or City:

Trip Planner

Search our weather history database for the weather conditions in past years. The results will help you decide how hot, cold, wet, or windy it might be!

Date:

Astronomy

May. 09, 2013 Rise Set
Actual Time 6:13 AM CDT 8:32 PM CDT
Civil Twilight 5:42 AM CDT 9:03 PM CDT
Nautical Twilight 5:03 AM CDT 9:42 PM CDT
Astronomical Twilight 4:21 AM CDT 10:24 PM CDT
Moon 5:58 AM CDT (5/9) 8:28 PM CDT (5/9)
Length of Visible Light 15h 21m
Length of Day
14h 19m
Waning Crescent, 0% of the Moon is Illuminated
May 9
Waning Crescent
May 9
New
May 17
First Quarter
May 24
Full
May 31
Last Quarter

Hourly Weather History & Observations

Time (CDT) Temp. Dew Point Humidity Pressure Visibility Wind Dir Wind Speed Gust Speed Precip Events Conditions
12:15 AM 56.8 °F 54.5 °F 92% 29.92 in 4.0 mi NW 3.5 mph - N/A   Mostly Cloudy
12:35 AM 55.8 °F 53.8 °F 93% 29.92 in 2.5 mi Calm Calm - N/A   Overcast
12:55 AM 56.5 °F 54.7 °F 94% 29.91 in 3.0 mi NNW 4.6 mph - N/A Thunderstorm Scattered Clouds
1:35 AM 56.5 °F 54.5 °F 93% 29.92 in 3.0 mi Calm Calm - N/A   Overcast
1:55 AM 56.3 °F 54.5 °F 94% 29.91 in 4.0 mi North 3.5 mph - N/A Thunderstorm Overcast
2:15 AM 55.8 °F 53.6 °F 92% 29.90 in 5.0 mi Calm Calm - N/A   Scattered Clouds
2:35 AM 55.0 °F 52.9 °F 92% 29.89 in 5.0 mi Calm Calm - N/A   Clear
2:55 AM 52.9 °F 50.9 °F 93% 29.89 in 2.5 mi Calm Calm - N/A   Clear
3:15 AM 53.8 °F 52.0 °F 94% 29.89 in 1.8 mi Calm Calm - N/A   Mist
3:35 AM 52.5 °F 50.7 °F 94% 29.89 in 2.0 mi Calm Calm - N/A   Overcast
3:55 AM 54.0 °F 52.2 °F 94% 29.89 in 3.0 mi Calm Calm - N/A   Overcast
4:35 AM 54.9 °F 53.1 °F 94% 29.89 in 4.0 mi NNE 3.5 mph - N/A   Overcast
5:15 AM 55.0 °F 53.2 °F 94% 29.89 in 2.5 mi Calm Calm - N/A   Overcast
6:15 AM 54.9 °F 53.1 °F 94% 29.91 in 0.2 mi North 4.6 mph - N/A Fog Fog
6:35 AM 54.7 °F 53.1 °F 94% 29.91 in 1.2 mi North 3.5 mph - N/A   Overcast
6:55 AM 54.5 °F 52.9 °F 94% 29.91 in 1.0 mi North 4.6 mph - N/A   Overcast
7:55 AM 55.4 °F 53.8 °F 94% 29.92 in 1.2 mi North 6.9 mph - N/A   Overcast
8:15 AM 55.6 °F 54.0 °F 94% 29.92 in 0.5 mi North 6.9 mph - N/A Fog Fog
8:35 AM 55.9 °F 54.3 °F 94% 29.92 in 1.5 mi North 5.8 mph - N/A   Overcast
9:55 AM 56.8 °F 54.7 °F 92% 29.95 in 2.5 mi NNW 8.1 mph - N/A   Overcast
10:35 AM 57.4 °F 54.7 °F 91% 29.96 in 1.2 mi North 5.8 mph - N/A   Overcast
10:55 AM 58.1 °F 55.2 °F 90% 29.96 in 1.5 mi North 6.9 mph - N/A   Overcast
11:15 AM 58.5 °F 55.0 °F 88% 29.96 in 1.5 mi North 4.6 mph - N/A   Overcast
11:35 AM 59.2 °F 55.4 °F 87% 29.97 in 2.0 mi NNW 6.9 mph - N/A   Overcast
12:15 PM 59.4 °F 54.3 °F 83% 29.98 in 5.0 mi North 6.9 mph - N/A   Haze
12:55 PM 61.0 °F 54.7 °F 80% 29.97 in 5.0 mi North 5.8 mph - N/A   Haze
1:15 PM 60.1 °F 54.3 °F 81% 29.97 in 5.0 mi North 8.1 mph - N/A   Haze
1:35 PM 59.9 °F 54.5 °F 82% 29.96 in 4.0 mi Calm Calm - N/A   Haze
1:55 PM 61.9 °F 54.5 °F 77% 29.96 in 5.0 mi Calm Calm - N/A   Haze
2:15 PM 61.9 °F 54.3 °F 76% 29.96 in 7.0 mi NW 5.8 mph - N/A   Overcast
2:35 PM 62.1 °F 53.6 °F 74% 29.96 in 10.0 mi NW 3.5 mph - N/A   Overcast
2:55 PM 61.7 °F 54.3 °F 77% 29.96 in 7.0 mi NW 5.8 mph - N/A   Overcast
3:15 PM 63.3 °F 54.9 °F 74% 29.95 in 10.0 mi NW 6.9 mph - N/A   Overcast
3:35 PM 62.8 °F 55.6 °F 77% 29.95 in 10.0 mi NW 11.5 mph - N/A   Mostly Cloudy
3:55 PM 64.0 °F 54.9 °F 72% 29.94 in 10.0 mi NNW 12.7 mph 16.1 mph N/A   Scattered Clouds
4:15 PM 64.6 °F 55.4 °F 72% 29.94 in 10.0 mi NW 12.7 mph - N/A   Mostly Cloudy
4:35 PM 64.0 °F 55.2 °F 73% 29.94 in 10.0 mi NNW 10.4 mph 21.9 mph N/A   Mostly Cloudy
4:55 PM 63.7 °F 55.8 °F 75% 29.95 in 10.0 mi NNW 13.8 mph 20.7 mph N/A   Overcast
5:15 PM 61.7 °F 54.7 °F 78% 29.96 in 7.0 mi NNW 9.2 mph 18.4 mph N/A   Overcast
5:35 PM 62.4 °F 54.7 °F 76% 29.96 in 7.0 mi North 11.5 mph 18.4 mph N/A   Mostly Cloudy
5:55 PM 61.7 °F 54.3 °F 77% 29.96 in 10.0 mi North 10.4 mph 17.3 mph N/A   Overcast
6:15 PM 61.7 °F 54.0 °F 76% 29.97 in 10.0 mi North 8.1 mph 19.6 mph N/A   Overcast
6:35 PM 61.7 °F 53.6 °F 75% 29.97 in 10.0 mi North 9.2 mph 16.1 mph N/A   Overcast
6:55 PM 61.5 °F 53.6 °F 75% 29.98 in 10.0 mi North 9.2 mph - N/A   Overcast
7:15 PM 60.6 °F 53.8 °F 78% 29.98 in 10.0 mi North 9.2 mph 17.3 mph N/A   Overcast
7:35 PM 58.5 °F 55.2 °F 89% 29.99 in 3.0 mi North 8.1 mph - N/A   Overcast
7:55 PM 57.7 °F 54.5 °F 89% 29.99 in 5.0 mi North 11.5 mph 17.3 mph N/A   Overcast
8:15 PM 57.2 °F 54.3 °F 90% 29.99 in 4.0 mi North 6.9 mph 17.3 mph N/A   Drizzle
8:35 PM 57.2 °F 54.5 °F 91% 29.99 in 7.0 mi NNW 5.8 mph - N/A   Overcast
8:55 PM 57.2 °F 54.5 °F 91% 30.00 in 7.0 mi NNW 4.6 mph - N/A   Scattered Clouds
9:15 PM 57.4 °F 54.7 °F 91% 30.00 in 5.0 mi NNW 5.8 mph - N/A   Mostly Cloudy
9:35 PM 56.7 °F 54.0 °F 91% 30.01 in 5.0 mi NW 8.1 mph - N/A   Mostly Cloudy
9:55 PM 56.5 °F 53.8 °F 91% 30.01 in 5.0 mi NW 5.8 mph - N/A   Overcast
10:15 PM 56.7 °F 53.8 °F 90% 30.02 in 7.0 mi NNW 6.9 mph - N/A   Overcast
10:35 PM 57.2 °F 53.2 °F 87% 30.02 in 10.0 mi North 10.4 mph - N/A   Overcast
10:55 PM 56.7 °F 51.8 °F 84% 30.03 in 10.0 mi North 8.1 mph - N/A   Scattered Clouds
11:15 PM 55.9 °F 51.3 °F 84% 30.03 in 10.0 mi North 8.1 mph - N/A   Scattered Clouds
11:35 PM 55.2 °F 50.7 °F 85% 30.03 in 10.0 mi North 9.2 mph - N/A   Clear